Regional Weather Roundup
Issued by NWS Green Bay, WI

Home | Current Version | Previous Version | Graphics & Text | Print | Product List | Glossary Off
Versions: 1 2 3 4 5 6 7 8 9 10 11 12 13 14 15 16 17 18 19 20 21 22 23 24 25 26 27 28 29 30 31 32 33 34 35 36 37 38 39 40 41 42 43 44 45 46 47 48 49 50

000
ASUS43 KGRB 212310
RWRGRB

NORTH-CENTRAL AND NORTHEAST WISCONSIN REGIONAL WEATHER ROUNDUP
NATIONAL WEATHER SERVICE GREEN BAY WI
600 PM CDT TUE OCT 21 2014

WIZ005-009-010>012-018-019-220000-
NORTH CENTRAL WISCONSIN

CITY           SKY/WX    TMP DP  RH WIND       PRES   REMARKS
IRONWOOD       CLEAR     46  36  66 SE3       30.21S
MANITOWISH WTR CLEAR     43  34  70 CALM      30.22S
ARBOR VITAE    CLEAR     46  35  65 CALM      30.22S
EAGLE RIVER    CLEAR     41  32  70 CALM      30.22S
LAND O LAKES   CLEAR     40  33  75 CALM      30.23S
RHINELANDER    CLEAR     45  33  63 CALM      30.23R
PHILLIPS       CLEAR     46  35  66 E3        30.21S
ANTIGO         CLEAR     45  33  64 CALM      30.22S
TOMAHAWK       CLEAR     43  35  72 CALM      30.22F
MERRILL        CLEAR     49  35  58 CALM      30.22S
$$

WIZ013-073-220000-
NORTHEAST WISCONSIN

CITY           SKY/WX    TMP DP  RH WIND       PRES   REMARKS
IRON MOUNTAIN  CLEAR     46  29  51 E3        30.23S
MARINETTE      CLEAR     46  30  53 E5        30.24R
OCONTO         CLEAR     46  37  71 CALM      30.25R
$$

WIZ017-030-035>037-045-220000-
CENTRAL WISCONSIN

CITY           SKY/WX    TMP DP  RH WIND       PRES   REMARKS
MEDFORD        CLEAR     46  35  66 SE3       30.21S
WAUSAU         CLEAR     50  34  54 CALM      30.21S
MOSINEE        CLEAR     48  36  61 E5        30.23S
MARSHFIELD     CLEAR     47  35  63 SE5       30.22R
WISC RAPIDS    CLEAR     48  36  63 CALM      30.24R
STEVENS POINT  CLEAR     47  33  59 CALM      30.23S
WAUPACA        CLEAR     50  34  53 CALM      30.24R
SHAWANO        CLEAR     49  33  54 E3        30.24S
CLINTONVILLE   CLEAR     50  32  50 E3        30.23S
$$

WIZ038-039-048-051-220000-
FOX VALLEY

CITY           SKY/WX    TMP DP  RH WIND       PRES   REMARKS
NWS GREEN BAY  CLEAR     45  36  70 NE6       30.24S
APPLETON       CLEAR     50  32  50 VRB5      30.24R
OSHKOSH        CLEAR     48  31  51 NE7       30.24R
FOND DU LAC    CLEAR     46  33  60 N6        30.24R
$$

WIZ022-050-052-220000-
EAST CENTRAL WISCONSIN

CITY           SKY/WX    TMP DP  RH WIND       PRES   REMARKS
STURGEON BAY   CLEAR     46  28  49 NE5       30.25R
MANITOWOC      CLEAR     46  38  73 NE3       30.25R
SHEBOYGAN      CLEAR     43  37  79 NE8       30.24R
$$

LMZ563-521-522-541>543-220000-
LAKESHORE

STATION/POSITION TIME  TEMP    WIND        PRES    VSBY  WAVE
                       AIR SEA DIR/SP/G                  HT/PER
                 (UTC) (F)     (DEG/KT/KT) (MB)    (MI)  (FT/S)
SHEBOYGAN LKSHOR 2300   47 50   30/ 15/ 17 1024.6R
KEWAUNEE LKSHORE 2300   48      30/  7/ 10 1023.2S
NORTHPORT PIER   2300   49     360/ 12/ 14 1024.0S
N MID LAKE BUOY  2300   48 51   30/ 10/ 12 1024.6R         1/ 4
CHAMBERS ISLAND  2300   49      30/ 10/ 12 1024.4R
MENOMINEE LKSHOR 2300   50      50/ 11/ 13 1024.7R
$$



USA.gov is the U.S. government's official web portal to all federal, state and local government web resources and services.